User: anonymous   Login
Location: Vancouver
(49.2500°N, 123.1330°W)
Time: 00:46:13
(UTC-08:00)
Language:

ERS-2 - Orbit

View from above orbital plane
View from above orbital plane
View from above satellite
View from above satellite

Ground track
Ground track

The orbit data is extracted from the following two-line orbital elements,

1 23560U 95021A   18051.95553833 +.00001056 +00000-0 +50842-4 0  9994
2 23560 098.5507 082.9247 0003904 161.3351 198.8025 15.21502978213177
Epoch (UTC): 20 February 2018 22:55:58
Eccentricity: 0.0003904
inclination: 98.5507°
perigee height: 498 km
apogee height: 504 km
right ascension of ascending node: 82.9247°
argument of perigee: 161.3351°
revolutions per day: 15.21502978
mean anomaly at epoch: 198.8025°
orbit number at epoch: 21317

The dashed part of the orbit path shows where the satellite is in the earth's shadow,  

DLR